Cloud_Cover
3 4 46 11 4 2 2 5 5 5 1 1 0 0 0 0 0 0 0 0 0 0 0 0 1 5 4 3 1 0 0 0
5 5 5 5 5 5 0 5 5 0 0 0 0 0 0 0 0 0 0 0 0 0 0 0 0 0 0 1 2 5 5 2
25 54 19 40 47 7 2 5 5 4 4 0 0 0 0 0 0 0 0 1 0 0 1 0 0 0 1 13 91 99 32 34
9 5 13 80 25 5 5 5 5 5 4 5 4 0 0 0 0 0 1 5 5 14 28 40 35 43 23 54 66 100 97 54
5 5 5 5 5 5 5 1 1 5 5 5 1 0 0 0 0 0 0 2 5 5 3 23 58 100 100 100 100 100 100 100
5 2 4 0 0 0 1 3 5 5 5 5 0 0 0 0 0 5 5 5 5 5 2 8 62 100 100 100 100 100 100 100
3 0 0 0 5 1 4 5 5 5 5 3 0 0 0 1 4 5 5 5 5 5 2 3 29 98 100 100 100 100 100 100
5 5 5 5 4 5 5 5 3 0 0 0 0 0 0 0 3 3 3 4 4 13 11 39 97 100 100 100 100 100 100 100
10 13 10 5 5 5 0 0 0 0 0 0 0 0 0 0 5 4 0 2 18 30 85 100 100 100 100 100 100 100 100 100
9 99 82 100 28 1 0 0 0 0 0 0 0 0 4 5 5 5 6 22 5 64 100 100 100 100 100 100 100 100 100 100
100 100 100 46 6 5 4 5 5 5 5 1 0 0 5 5 5 7 16 55 74 93 97 100 100 100 100 100 100 100 100 100
100 100 79 5 5 5 5 5 5 5 5 2 3 5 5 5 5 7 77 81 86 95 100 100 100 100 100 100 100 100 100 100
64 63 9 5 5 5 5 5 5 5 5 5 5 5 5 5 27 64 77 96 97 100 100 100 100 100 100 100 100 100 100 100
72 22 9 92 90 9 5 5 5 5 0 3 5 5 5 8 68 80 96 98 100 100 100 100 100 100 100 100 100 100 100 100
73 62 90 70 35 45 5 5 5 5 3 5 5 5 55 56 82 87 98 98 99 100 100 100 100 100 100 100 100 100 98 100
70 75 63 87 33 5 5 5 5 3 0 5 5 5 5 45 71 99 98 98 100 100 100 100 100 100 100 96 83 100 100 100
100 100 100 62 10 23 83 14 5 0 1 5 5 5 5 13 61 82 85 100 97 99 100 100 100 100 95 100 100 78 100 100
100 100 100 82 84 98 24 6 5 5 1 5 5 5 5 5 54 63 75 92 100 100 100 100 100 100 89 100 96 94 99 91
100 100 100 100 77 9 16 5 5 3 5 5 5 5 5 6 42 26 69 87 94 100 100 100 100 100 99 100 100 99 100 100